Время (UTC), дата Ветер
(°,м/с) 
Видим.   Явления Облачность Т
(°С)
Тd
(°С)
f(%) Тe
(°С)
Pmin
(гПа)
dP
(гПа)
Po
(мм)
O2
(г/м3)
Тmin Tmax R s Состояние
почвы
00 01.08.13 330 (СЗ) 10 км    ясно 
+18.8 +11.4 62 +22  1006.4  0.1  748  280           
03 01.08.13 320 (СЗ) 10 км    6/0 средняя, верхняя 
[Ac trans|Ci fib]
+18.3 +11.5 64 +22  1007.1  0.7  749  281  +17.7         
06 01.08.13 290 (З) 10 км    5/0 верхняя 
[Ci fib]
+25.2 +12.1 44 +29  1007.6  0.7  749  274           
09 01.08.13 290 (З) 10 км    6/6 1200 м 
[Cu med, cong]
+27.5 +12.3 39 +32  1007.1  -0.4  749  272           
12 01.08.13 250 (З) 10 км  гроза без осадков  6/4 1000 м кучево-дожд., средняя 
[Cb cap|Ac trans]
+29.2 +11.8 34 +33  1006  -1.1  748  270           
15 01.08.13 250 (З) 10 км  {гроза, ливн. осадки}  4/1 1000 м кучево-дожд., средняя 
[Cb calv|Ac trans]
+25.8 +16 55 +36  1007.1  749  272    +29.6  0.4     
18 01.08.13 270 (З) 3{15}  10 км  {гроза, ливн. осадки}  3/1 1000 м кучево-дожд., средняя 
[Cb calv|Ac trans]
+23.5 +16.7 66 +35  1008.4  1.3  750  275           
21 01.08.13 280 (З) 10 км    5/0 средняя, верхняя 
[Ac trans|Ci fib]
+23 +18.9 78 +39  1008.8  0.3  750  274           
00 02.08.13 310 (СЗ) 10 км    4/0 верхняя 
[Ci fib]
+20.2 +16.8 81 +32  1008.5  -0.2  750  278           
03 02.08.13 320 (СЗ) 10 км    3/0 средняя, верхняя 
[Ac trans|Ci fib]
+20.3 +14.9 71 +29  1009.2  0.5  750  278  +17.8         
06 02.08.13 280 (З) 10 км    4/0 верхняя 
[Ci fib]
+25.9 +14.3 49 +33  1009.5  0.5  751  273           
09 02.08.13 300 (СЗ) 10 км    5/5 1300 м кучево-дожд. 
[Cb calv]
+29.4 +10.9 32 +32  1009.2  -0.2  751  271           
12 02.08.13 290 (З) 7-11  10 км    6/6 1300 м кучево-дожд. 
[Cb calv]
+28.3 +13.7 41 +35  1008.5  -0.7  750  271           
15 02.08.13 260 (З) 4{11}  10 км    9/3 1000 м кучево-дожд., средняя 
[Cb calv|Ac trans]
+27.4 +15 47 +36  1008.2  -0.3  750  272    +30.7       
18 02.08.13 260 (З) 5{11}  10 км  зарница  9/5 1300 м кучево-дожд., средняя 
[Cb cap|Ac trans]
+24.6 +16.8 62 +37  1009  0.7  750  274           
21 02.08.13 340 (С) 10 км    4/0 кучево-дожд., средняя 
[Cb calv|Ac trans]
+22.5 +15.8 66 +33  1008.7  -0.3  750  276           
00 03.08.13 180 (Ю) 10 км  слаб. ливневой дождь  8/3 1000 м кучево-дожд., средняя 
[Cb calv|Ac trans]
+20.6 +14.8 69 +29  1008.3  -0.4  750  278           
03 03.08.13 330 (СЗ) 3{11}  10 км  слаб. ливневой дождь, в посл. час гроза  9/4 1000 м кучево-дожд., средняя 
[Cb calv|Ac trans]
+18.5 +16.7 89 +31  1008.6  0.1  750  279  +18.2       
06 03.08.13 110 (В) 3{11}  10 км  гроза без осадков{ливн. осадки}  9/3 1000 м кучево-дожд., средняя 
[Cb cap|Ac trans]
+19.9 +16.5 81 +32  1007.5  -1  749  278  +18.1         
09 03.08.13 160 (Ю) 10 км  {гроза, ливн. осадки}  9/3 1000 м кучево-дожд., средняя 
[Cb calv|Ac trans]
+21.3 +17.1 77 +34  1007.8  0.3  749  276           
12 03.08.13 210 (ЮЗ) 7-10  10 км  в посл. час гроза{ливн. осадки}  8/4 1000 м кучево-дожд., средняя 
[Cb calv|Ac trans]
+22.4 +15.3 64 +32  1006.6  -1  749  276           
15 03.08.13 190 (Ю) 3{10}  10 км    6/3 1000 м кучево-дожд., средняя, верхняя 
[Cb calv|Ac trans|Ci fib]
+22.9 +14.8 60 +31  1006.4  -0.4  748  275    +23.5     
18 03.08.13 310 (СЗ) 1{11}  10 км  гроза без осадков{ливн. осадки}  8/4 1000 м кучево-дожд., средняя 
[Cb cap|Ac trans]
+16.8 +12.4 75 +22  1008.2  1.6  750  282           
21 03.08.13 280 (З) 4000 м  дымка{гроза}  5/0 средняя 
[Ac trans]
+16.5 +13.4 82 +23  1007.9  -0.2  749  282           
00 04.08.13 270 (З) 10 км  {гроза}  8/0 средняя 
[Ac trans]
+16.5 +12.5 77 +22  1007.3  -0.5  749  282           
03 04.08.13 280 (З) 10 км    9/1 1000 м кучево-дожд., средняя 
[Cb calv|Ac trans]
+16 +12.2 78 +21  1007.3  749  283  +14.6    0.6     
06 04.08.13 280 (З) 10 км    8/3 1000 м кучево-дожд., средняя, верхняя 
[Cb calv|Ac trans|Ci fib]
+18.9 +13.3 70 +26  1007.4  0.1  749  280           
09 04.08.13 350 (С) 10 км    9/6 1000 м кучево-дожд., средняя 
[Cb calv|Ac trans]
+20.6 +12.6 60 +25  1007.2  -0.1  749  278           
12 04.08.13 270 (З) 10 км  гроза, ливневой дождь  9/6 1000 м кучево-дожд., средняя 
[Cb calv|Ac trans]
+18.9 +12.9 68 +25  1007.6  0.3  749  280           
15 04.08.13 240 (ЮЗ) 1{11}  10 км  слаб. ливневой дождь, в посл. час гроза  8/5 1000 м кучево-дожд., средняя 
[Cb calv|Ac trans]
+19.7 +14.6 72 +29  1008.1  0.5  750  279    +22.5  10     
18 04.08.13 270 (З) 10 км  {гроза, ливн. осадки}  6/3 1000 м кучево-дожд., средняя 
[Cb calv|Ac trans]
+16.8 +14.6 87 +26  1009.1  0.9  750  282           
21 04.08.13 300 (СЗ) 10 км  в посл. час ливневой дождь  8/3 1000 м кучево-дожд., средняя 
[Cb calv|Ac trans]
+18.3 +14.6 79 +27  1009.1  750  280           
00 05.08.13 310 (СЗ) 10 км  {ливн. осадки}  8/1 1000 м кучево-дожд., средняя 
[Cb calv|Ac trans]
+18 +14.2 78 +26  1008.8  -0.2  750  281           
03 05.08.13 280 (З) 4000 м  слаб. ливневой дождь  9/5 1000 м кучево-дожд., средняя 
[Cb calv|Ac trans]
+16.8 +14.9 89 +25  1008.9  750  282  +16.7       
06 05.08.13 330 (СЗ) 4000 м  слаб. ливневой дождь  10/6 1000 м кучево-дожд., средняя 
[Cb calv|Ac und]
+18.1 +16.3 89 +31  1009  0.2  750  280  +16.7         
09 05.08.13 330 (СЗ) 10 км  {ливн. осадки}  9/6 900 м кучево-дожд., средняя 
[Cb calv|Ac trans]
+21.5 +16.8 75 +33  1009.1  0.2  750  277           
12 05.08.13 320 (СЗ) 10 км  {гроза, ливн. осадки}  9/5 1000 м кучево-дожд., средняя 
[Cb calv|Ac trans]
+22.7 +16.4 68 +34  1008.6  -0.5  750  275           
15 05.08.13 300 (СЗ) 10 км    9/5 1000 м кучево-дожд., средняя 
[Cb calv|Ac trans]
+23.5 +16.2 64 +34  1009.3  0.6  751  275    +23.5     
18 05.08.13 320 (СЗ) 10 км    6/1 1000 м кучево-дожд., средняя 
[Cb calv|Ac trans]
+20.6 +16.1 75 +31  1010.8  1.3  752  278           
21 05.08.13 330 (СЗ) 10 км    ясно 
+18.4 +16.1 86 +30  1011.7  0.9  752  280           
00 06.08.13 310 (СЗ) 4000 м  дымка  ясно 
+17.5 +15.8 90 +28  1011.6  -0.1  752  281           
03 06.08.13 300 (СЗ) 4000 м  дымка  3/0 верхняя 
[Ci fib]
+17.2 +15.6 90 +28  1011.9  0.3  752  282  +16.7         
06 06.08.13 290 (З) 10 км    ясно 
+22.7 +17.4 72 +36  1012.1  0.3  753  276           
09 06.08.13 300 (СЗ) 10 км    5/5 1000 м 
[Cu med, cong]
+25.3 +16.5 58 +37  1012.2  0.2  753  274           
12 06.08.13 300 (СЗ) 10 км    4/4 1000 м 
[Cu med, cong]
+27.1 +15.2 48 +36  1011.7  -0.6  752  273           
15 06.08.13 280 (З) 10 км    3/3 1000 м 
[Cu med, cong]
+27.7 +14.3 44 +35  1010.8  -0.9  752  272    +28.3       
18 06.08.13 280 (З) 10 км    4/1 1000 м кучево-дожд., средняя 
[Cb calv|Ac trans]
+23 +17.4 71 +36  1011.7  0.8  752  276           
21 06.08.13 290 (З) 4000 м  дымка  3/0 средняя 
[Ac trans]
+21.9 +17.1 74 +34  1011.6  -0.1  752  277           
00 07.08.13 340 (С) 4000 м  дымка  3/0 средняя 
[Ac trans]
+20.3 +16.8 80 +32  1011  -0.7  752  278           
03 07.08.13 030 (СВ) 10 км    ясно 
+19.9 +16.3 80 +32  1011  752  279  +18.8         
06 07.08.13 010 (С) 10 км    3/0 верхняя 
[Ci fib]
+25.8 +15.7 54 +36  1011.5  0.6  752  274           
09 07.08.13 010 (С) 10 км    8/6 1200 м верхняя 
[Cu med, cong|Ci fib]
+28.6 +15.3 44 +38  1011  -0.3  752  271           
12 07.08.13 340 (С) 3{10}  10 км  {гроза, ливн. осадки}  8/6 1200 м кучево-дожд., верхняя 
[Cb calv|Ci fib]
+28 +17.4 53 +41  1010.6  -0.4  752  271           
15 07.08.13 320 (СЗ) 10 км    8/4 1000 м кучево-дожд., средняя 
[Cb calv|Ac trans]
+29.3 +12.3 35 +34  1011  0.4  752  271    +30.2  0.0     
18 07.08.13 050 (СВ) 10 км  зарница  8/4 1000 м кучево-дожд., средняя 
[Cb cap|Ac trans]
+24.3 +15.4 58 +34  1012.6  1.4  753  275           
21 07.08.13 010 (С) 10 км    6/0 средняя 
[Ac trans]
+22.7 +16.1 66 +33  1012.5  -0.1  753  277           
00 08.08.13 020 (С) 10 км    4/0 средняя 
[Ac trans]
+21.2 +16.3 74 +32  1013.7  1.1  754  278           
03 08.08.13 020 (С) 10 км    3/0 верхняя 
[Ci fib]
+20.2 +14.8 71 +28  1014.7  0.9  755  280  +19.5         
06 08.08.13 050 (СВ) 10 км    1/0 верхняя 
[Ci fib]
+25.6 +12.5 44 +30  1015.4  0.8  755  276           
09 08.08.13 360 (С) 10 км    ясно 
+28.6 +10.8 33 +31  1015.4  755  274           
12 08.08.13 010 (С) 10 км    ясно 
+29.9 +8.7 27 +30  1014.6  -0.7  755  273           
15 08.08.13 010 (С) 10 км    4/0 средняя, верхняя 
[Ac trans|Ci fib]
+29.2 +9.6 29 +30  1014.3  -0.3  754  273    +30.3       
18 08.08.13 360 (С) 10 км    8/3 1500 м кучево-дожд., средняя 
[Cb calv|Ac trans]
+24.8 +14.1 51 +32  1015.1  0.6  755  276           
21 08.08.13 280 (З) 10 км  гроза без осадков  6/3 1500 м кучево-дожд., средняя 
[Cb cap|Ac trans]
+22 +15.2 65 +31  1015.8  0.6  755  278           
00 09.08.13 330 (СЗ) 10 км  {гроза}  4/0 средняя 
[Ac trans]
+20 +15.5 75 +29  1015.3  -0.5  755  280           
06 09.08.13 050 (СВ) 10 км    ясно 
+24.8 +15.5 56 +34  1014.9  0.1  755  276           
09 09.08.13 050 (СВ) 10 км    5/5 1200 м 
[Cu med, cong]
+27.7 +10.7 35 +30  1014.5  -0.3  755  274           
12 09.08.13 350 (С) 10 км    5/5 1200 м 
[Cu med, cong]
+29 +7.7 26 +29  1014  -0.5  754  273           
15 09.08.13 020 (С) 10 км    3/0 средняя 
[Ac trans]
+28.5 +6.8 25 +29  1013.5  -0.5  754  274    +29.8       
18 09.08.13 330 (СЗ) 10 км    1/0 средняя 
[Ac trans]
+23.5 +9.6 41 +24  1014  0.3  754  278           
21 09.08.13 340 (С) 10 км    3/0 средняя 
[Ac trans]
+22.4 +11.8 51 +26  1013.6  -0.4  754  278           
00 10.08.13 350 (С) 10 км    3/0 средняя 
[Ac trans]
+21.7 +13.3 59 +27  1013.1  -0.5  753  279           
03 10.08.13 010 (С) 10 км    1/0 средняя 
[Ac trans]
+20.9 +13.8 64 +27  1013.2  0.1  753  279  +19.1         
06 10.08.13 040 (СВ) 10 км    ясно 
+25.9 +13.7 47 +32  1013.3  0.3  754  275           
09 10.08.13 020 (С) 10 км    1/1 1500 м 
[Cu med, cong]
+28.5 +9.3 30 +29  1012.7  -0.6  753  273           
12 10.08.13 030 (СВ) 6-10{10}  10 км    4/4 1500 м 
[Cu hum]
+30.4 +10.9 30 +33  1011.5  -1  752  271           
15 10.08.13 030 (СВ) 3{10}  10 км    4/0 средняя 
[Ac trans]
+30 +11.2 31 +33  1011.2  -0.3  752  271    +30.9       
18 10.08.13 010 (С) 10 км    ясно 
+26.2 +10.7 38 +28  1011.9  0.5  753  275           
21 10.08.13 040 (СВ) 10 км    ясно 
+23.8 +11.5 46 +27  1011.9  752  277           
00 11.08.13 050 (СВ) 10 км    ясно 
+20.6 +11.9 57 +24  1012  752  280           
03 11.08.13 050 (СВ) 10 км    ясно 
+20.6 +12.6 60 +25  1012.4  0.3  753  280  +19.3         
06 11.08.13 090 (В) 10 км    ясно 
+26.5 +13.6 45 +33  1012.4  0.1  753  274           
09 11.08.13 070 (В) 10 км    1/1 1500 м 
[Cu hum]
+31.1 +12.6 32 +36  1011.8  -0.5  753  270           
12 11.08.13 090 (В) 10 км    ясно 
+31.8 +11.6 29 +35  1011  -0.7  752  269           
15 11.08.13 070 (В) 10 км    ясно 
+31.1 +9.8 27 +32  1010.5  -0.5  752  270    +32.5       
18 11.08.13 080 (В) 10 км    ясно 
+26.3 +12.1 41 +30  1011.7  752  274           
21 11.08.13 080 (В) 10 км    ясно 
+23 +9.3 42 +23  1012.2  0.5  753  278           
00 12.08.13 070 (В) 10 км    ясно 
+19.9 +10.2 54 +22  1012.6  0.2  753  281           
03 12.08.13 070 (В) 10 км    ясно 
+19.3 +8.8 51 +20  1013.2  0.6  753  282  +18         
06 12.08.13 080 (В) 10 км    6/0 верхняя 
[Ci fib]
+25.7 +10.5 38 +27  1013.9  0.6  754  276           
09 12.08.13 090 (В) 8-11{11}  10 км    9/0 верхняя 
[Ci fib]
+30.9 +11.3 30 +34  1012.9  -0.3  753  271           
12 12.08.13 080 (В) 8-12{11}  4000 м  мгла  9/0 верхняя 
[Ci fib]
+32.5 +10.7 26 +35  1011.4  -1.4  752  269           
15 12.08.13 080 (В) 5-10{12}  4000 м  мгла  9/0 верхняя 
[Ci fib]
+31.6 +10.7 28 +34  1011.2  -0.3  752  270    +32.9       
18 12.08.13 060 (СВ) 4000 м  мгла  9/0 средняя, верхняя 
[Ac trans|Ci fib]
+25.7 +11.7 42 +29  1012  0.6  753  275           
21 12.08.13 060 (СВ) 4000 м  мгла  4/0 верхняя 
[Ci fib]
+23.6 +11.8 48 +27  1012.2  0.1  753  277           
00 13.08.13 080 (В) 4000 м  мгла  5/0 средняя, верхняя 
[Ac trans|Ci fib]
+23.1 +12.5 51 +28  1012.8  0.6  753  277           
03 13.08.13 070 (В) 4000 м  мгла  6/0 средняя, верхняя 
[Ac trans|Ci fib]
+19.9 +13.8 68 +28  1013.1  0.1  753  280  +19         
06 13.08.13 070 (В) 10 км    8/0 верхняя 
[Ci fib]
+25.6 +15.2 53 +34  1013.3  0.4  754  275           
15 13.08.13 100 (В) 4000 м  мгла  6/0 верхняя 
[Ci fib]
+30.8 +8.6 25 +31  1012  -0.3  753  271    +32.7       
18 13.08.13 060 (СВ) 10 км    4/0 верхняя 
[Ci fib]
+25.4 +10.1 38 +27  1012.9  0.6  753  276           
21 13.08.13 060 (СВ) 10 км    3/0 верхняя 
[Ci fib]
+23.3 +11.7 48 +27  1012.8  753  277           
00 14.08.13 тихо ()   10 км    ясно 
+21.5 +12.6 57 +26  1013  0.1  753  279           
03 14.08.13 310 (СЗ) 10 км    4/0 средняя, верхняя 
[Ac trans|Ci fib]
+19.9 +12.6 63 +26  1013.6  0.5  754  281  +19.8         
06 14.08.13 100 (В) 10 км    4/0 средняя 
[Ac trans]
+25.9 +16.6 56 +37  1014.2  0.8  754  274           
09 14.08.13 080 (В) 10 км    1/1 1000 м 
[Cu hum]
+31.5 +13.9 34 +38  1013.9  -0.1  754  270           
12 14.08.13 090 (В) 10 км    3/3 1000 м 
[Cu med, cong]
+33 +12.6 29 +38  1013.1  -0.7  754  269           
15 14.08.13 110 (В) 10 км    3/0 средняя 
[Ac trans]
+32.1 +10.7 27 +34  1013  -0.2  753  270    +33.3       
18 14.08.13 050 (СВ) 10 км    ясно 
+25.8 +9.3 35 +26  1014.1  0.7  754  276           
21 14.08.13 060 (СВ) 10 км    ясно 
+22.8 +11.4 49 +26  1013.8  -0.2  754  278           
00 15.08.13 тихо ()   10 км    ясно 
+21.2 +12.6 58 +26  1013.5  -0.3  754  279           
03 15.08.13 060 (СВ) 10 км    ясно 
+21.2 +12.8 59 +26  1014.1  0.4  754  279  +19.1         
06 15.08.13 060 (СВ) 10 км    5/0 средняя 
[Ac trans]
+27.8 +14.1 43 +35  1014.1  0.2  754  273           
09 15.08.13 070 (В) 10 км    4/1 1000 м верхняя 
[Cu med, cong|Ci fib]
+32.2 +15.3 36 +41  1013.6  -0.4  754  269           
12 15.08.13 220 (ЮЗ) 10 км    4/4 1000 м 
[Cu med, cong]
+33.7 +12 27 +38  1012.2  -1.1  753  268           
15 15.08.13 040 (СВ) 10 км    4/3 1000 м кучево-дожд., средняя 
[Cb calv|Ac trans]
+33.2 +15.9 35 +43  1011.7  -0.5  753  267    +34.7       
18 15.08.13 300 (СЗ) 10 км    3/0 средняя 
[Ac trans]
+26.3 +16.1 53 +37  1012.7  0.8  753  273           
21 15.08.13 010 (С) 10 км    3/0 средняя 
[Ac trans]
+25.8 +16 55 +36  1012.8  753  274           
00 16.08.13 050 (СВ) 10 км    ясно 
+24 +14 54 +31  1012.8  -0.1  753  276           
03 16.08.13 080 (В) 10 км    3/0 средняя 
[Ac trans]
+22.4 +14.8 62 +31  1013.5  0.5  754  278  +21.2         
06 16.08.13 100 (В) 10 км    ясно 
+27.8 +17.8 55 +42  1013.8  0.5  754  272           
09 16.08.13 110 (В) 10 км    ясно 
+33.5 +13.5 30 +40  1013  -0.6  754  268           
12 16.08.13 100 (В) 10 км    1/1 1000 м 
[Cu hum]
+35.2 +11.2 23 +38  1011.5  -1.5  752  267           
15 16.08.13 060 (СВ) 10 км    8/4 1000 м кучево-дожд., средняя 
[Cb calv|Ac trans]
+33.1 +10 24 +34  1011.3  -0.1  752  269    +35.5       
18 16.08.13 010 (С) 7-11{13}  10 км    5/1 1000 м кучево-дожд., средняя 
[Cb calv|Ac trans]
+27 +14.4 46 +35  1012.9  1.4  753  273           
21 16.08.13 030 (СВ) 7-11{13}  10 км    4/0 средняя 
[Ac trans]
+25.7 +13.3 46 +31  1012.6  -0.3  753  275           
00 17.08.13 020 (С) 6-10{13}  10 км    5/0 средняя 
[Ac trans]
+24.3 +13.6 51 +31  1013  0.2  753  276           
03 17.08.13 040 (СВ) 9-13{13}  10 км    8/1 1000 м кучево-дожд., средняя 
[Cb calv|Ac trans]
+23.5 +15.8 62 +33  1013.1  753  276  +23.5         
06 17.08.13 070 (В) 10-14{14}  10 км    8/0 средняя 
[Ac trans]
+27.6 +14.6 45 +35  1013.5  0.4  754  273           
09 17.08.13 090 (В) 9-12{14}  10 км    5/0 верхняя 
[Ci fib]
+31.5 +13.8 34 +38  1012.9  -0.5  753  270           
12 17.08.13 070 (В) 7-10{14}  10 км    5/1 1000 м верхняя 
[Cu med, cong|Ci fib]
+33.7 +11.1 25 +36  1011.7  -1.1  753  268           
15 17.08.13 050 (СВ) 4{11}  10 км    6/4 1000 м кучево-дожд., средняя 
[Cb calv|Ac trans]
+31.4 +11.6 30 +35  1011.3  -0.4  752  270    +34       
18 17.08.13 020 (С) 7-10{11}  10 км    4/0 средняя 
[Ac trans]
+27.3 +13.8 43 +34  1012.6  1.1  753  273           
21 17.08.13 050 (СВ) 7-10{10}  10 км    3/0 средняя 
[Ac trans]
+24.7 +12.8 47 +30  1013  0.1  753  276           
00 18.08.13 020 (С) 5{10}  10 км    4/0 средняя 
[Ac trans]
+23.6 +15.8 62 +34  1012.6  -0.2  753  276           
03 18.08.13 020 (С) 10 км    5/0 средняя, верхняя 
[Ac trans|Ci fib]
+21.9 +15.8 68 +32  1013  0.3  753  278  +21.9         
06 18.08.13 040 (СВ) 10 км    6/1 1000 м кучево-дожд., средняя, верхняя 
[Cb calv|Ac trans|Ci fib]
+25.4 +15.7 55 +35  1013.1  0.2  753  274  +21.6         
09 18.08.13 030 (СВ) 7-10{10}  10 км    8/1 1000 м кучево-дожд., средняя 
[Cb calv|Ac trans]
+27.7 +15.7 48 +37  1013.2  754  272           
12 18.08.13 060 (СВ) 6{10}  10 км    5/0 средняя 
[Ac trans]
+30.3 +13.7 36 +37  1012.8  -0.3  753  271           
15 18.08.13 080 (В) 4{11}  10 км    3/1 1000 м кучево-дожд., средняя 
[Cb calv|Ac trans]
+28.7 +13.8 40 +35  1012.7  -0.1  753  272    +30.8       
18 18.08.13 040 (СВ) 10 км    5/0 средняя 
[Ac trans]
+24.7 +12.5 47 +29  1014.1  1.2  754  276           
21 18.08.13 010 (С) 10 км    4/0 средняя 
[Ac trans]
+22.5 +13 55 +28  1014.1  754  278           
00 19.08.13 030 (СВ) 10 км    1/0 средняя 
[Ac trans]
+20.1 +13.7 67 +26  1014.2  754  280           
03 19.08.13 020 (С) 10 км    4/0 средняя 
[Ac trans]
+19.5 +14.4 72 +27  1014.7  0.5  755  281  +18.4         
06 19.08.13 050 (СВ) 10 км    ясно 
+24.1 +15.8 60 +34  1015.4  0.7  755  276           
09 19.08.13 050 (СВ) 7-10{11}  10 км    6/6 1200 м 
[Cu med, cong]
+27 +14 45 +34  1014.9  -0.4  755  274           
12 19.08.13 350 (С) 4{11}  10 км    6/6 1200 м 
[Cu med, cong]
+29.5 +10.3 30 +31  1014  -0.8  754  272           
15 19.08.13 360 (С) 10 км    1/1 1000 м 
[Cu hum]
+28.6 +3.9 21 +29  1013.9  -0.1  754  274    +30.2       
18 19.08.13 360 (С) 10 км    ясно 
+23.8 +8.3 37 +24  1015.2  1.2  755  278           
21 19.08.13 340 (С) 10 км    ясно 
+21.5 +9.9 48 +22  1015.1  -0.2  755  280           
00 20.08.13 360 (С) 10 км    ясно 
+20.3 +8.8 48 +20  1015.1  755  282           
03 20.08.13 360 (С) 10 км    4/1 1000 м кучево-дожд., средняя 
[Cb calv|Ac trans]
+18.8 +11 60 +21  1015.8  0.6  755  283  +18.8         
06 20.08.13 040 (СВ) 10 км    6/4 1000 м средняя 
[Cu med, cong|Ac trans]
+24.5 +15.2 56 +33  1016.2  0.6  756  276           
09 20.08.13 030 (СВ) 10 км    8/5 1200 м средняя 
[Cu med, cong|Ac trans]
+26.6 +13.4 44 +32  1016  -0.1  756  275           
12 20.08.13 010 (С) 5{10}  10 км    6/3 1000 м средняя 
[Cu hum|Ac trans]
+28.9 +9.2 29 +29  1015.4  -0.5  755  274           
15 20.08.13 020 (С) 5{10}  10 км    4/1 1000 м средняя 
[Cu med, cong|Ac trans]
+27.6 +7.8 29 +28  1015.7  0.3  755  275    +29.7       
18 20.08.13 360 (С) 3{10}  10 км    ясно 
+23.1 +8.1 38 +23  1017  1.1  756  280           
21 20.08.13 360 (С) 10 км    ясно 
+21 +7.6 42 +21  1017  756  282           
00 21.08.13 010 (С) 10 км    1/0 средняя 
[Ac trans]
+19.7 +8.5 48 +20  1017  756  283           
03 21.08.13 070 (В) 10 км    1/0 средняя 
[Ac trans]
+17 +10.7 66 +20  1018.1  757  285  +16.9         
06 21.08.13 040 (СВ) 10 км    ясно 
+24.7 +12.8 47 +30  1018.3  0.3  757  277           
09 21.08.13 040 (СВ) 6-10{10}  10 км    4/4 1000 м 
[Cu med, cong]
+27.7 +11.9 37 +31  1017.5  -0.6  757  275           
12 21.08.13 050 (СВ) 6{11}  10 км    5/5 1200 м 
[Cu med, cong]
+28.5 +9.8 31 +29  1016.7  -0.7  756  274           
15 21.08.13 040 (СВ) 10 км    5/3 1000 м средняя 
[Cu hum|Ac trans]
+28.8 +9.2 29 +29  1016.4  -0.3  756  274    +30.8       
18 21.08.13 360 (С) 10 км    3/0 средняя 
[Ac trans]
+25 +9.7 38 +26  1017.2  0.7  756  278           
21 21.08.13 010 (С) 10 км    1/0 средняя 
[Ac trans]
+22.8 +9.3 42 +23  1017.3  756  280           
00 22.08.13 050 (СВ) 10 км    ясно 
+20.7 +9.6 49 +21  1017.3  756  282           
03 22.08.13 060 (СВ) 10 км    ясно 
+19.5 +9.4 52 +20  1017.2  -0.1  756  283  +17.7         
06 22.08.13 090 (В) 10 км    ясно 
+25.9 +11.6 41 +29  1017  756  276           
09 22.08.13 100 (В) 10 км    3/3 1000 м 
[Cu hum]
+29.8 +9.4 28 +30  1016.4  -0.5  756  273           
12 22.08.13 100 (В) 10 км    3/3 1000 м 
[Cu hum]
+31 +8.3 24 +31  1015.3  -1  755  272           
15 22.08.13 060 (СВ) 10 км    1/0 средняя 
[Ac trans]
+30.8 +9.4 27 +31  1014.6  -0.7  755  272    +31.6       
18 22.08.13 070 (В) 10 км    1/0 средняя 
[Ac trans]
+24.2 +10.3 41 +26  1015.1  0.3  755  278           
21 22.08.13 090 (В) 10 км    1/0 средняя 
[Ac trans]
+23.2 +10 43 +24  1014.9  -0.2  755  279           
00 23.08.13 070 (В) 10 км    1/0 средняя 
[Ac trans]
+20.2 +11.3 57 +23  1014.9  -0.1  755  281           
03 23.08.13 080 (В) 10 км    5/0 средняя, верхняя 
[Ac trans|Ci fib]
+19.9 +11.7 59 +23  1014.6  -0.2  754  281  +19.3         
06 23.08.13 080 (В) 10 км    6/0 средняя, верхняя 
[Ac trans|Ci fib]
+24.8 +12.6 47 +29  1014.3  -0.1  754  276           
09 23.08.13 100 (В) 10 км    5/4 1000 м средняя 
[Cu med, cong|Ac trans]
+31 +9.9 27 +32  1012.9  -1.1  753  271           
12 23.08.13 080 (В) 8-11{11}  10 км    8/4 1000 м средняя 
[Cu med, cong|Ac trans]
+32.2 +9.6 25 +33  1011.2  -1.5  752  269           
15 23.08.13 090 (В) 5{11}  10 км    6/3 1000 м средняя 
[Cu med, cong|Ac trans]
+30.5 +9.5 27 +31  1010.8  -0.5  752  271    +32.5       
18 23.08.13 080 (В) 4{11}  10 км    5/0 средняя 
[Ac trans]
+26.4 +8.5 32 +26  1011.1  0.2  752  275           
21 23.08.13 080 (В) 10 км    5/0 средняя 
[Ac trans]
+24.4 +10.2 41 +26  1011  -0.2  752  276           
00 24.08.13 080 (В) 10 км    5/0 средняя 
[Ac trans]
+21.6 +10.1 48 +23  1010.6  -0.3  752  279           
03 24.08.13 080 (В) 10 км    6/0 средняя, верхняя 
[Ac trans|Ci fib]
+20.1 +10.6 54 +22  1010.8  0.1  752  280  +20.1         
06 24.08.13 090 (В) 10 км    8/1 1500 м средняя 
[Cu hum|Ac trans]
+23.3 +12.2 50 +27  1011  0.2  752  277  +19.8         
09 24.08.13 090 (В) 10 км    6/0 средняя, верхняя 
[Ac trans|Ci fib]
+30.1 +10.1 29 +31  1010.2  -0.5  751  271           
12 24.08.13 080 (В) 6-10{10}  10 км    3/1 1500 м средняя, верхняя 
[Cu hum|Ac trans|Ci fib]
+31.3 +6.6 21 +31  1009.4  -0.8  751  270           
15 24.08.13 090 (В) 6{10}  10 км    4/3 1500 м верхняя 
[Cu med, cong|Ci fib]
+29.3 +11 32 +32  1009.4  751  271    +31.8       
18 24.08.13 090 (В) 3{10}  10 км    3/0 средняя 
[Ac trans]
+22.9 +13.8 56 +30  1010.3  0.6  751  277           
21 24.08.13 090 (В) 10 км    1/0 средняя 
[Ac trans]
+20.7 +15 70 +29  1010.1  -0.1  751  278           
00 25.08.13 080 (В) 10 км    ясно 
+18 +14.8 82 +27  1010.4  0.2  751  281           
03 25.08.13 080 (В) 10 км    3/0 средняя 
[Ac trans]
+17.8 +14.9 83 +26  1010.9  0.5  752  281  +16.7         
06 25.08.13 140 (ЮВ) 10 км    ясно 
+24.8 +15.3 56 +34  1011.1  0.3  752  275           
09 25.08.13 320 (СЗ) 10 км    1/1 1000 м 
[Cu hum]
+28.9 +13.2 38 +35  1010.8  -0.1  752  271           
12 25.08.13 190 (Ю) 10 км    6/4 1000 м кучево-дожд., средняя, верхняя 
[Cb calv|Ac trans|Ci fib]
+31.4 +11.4 29 +34  1009.7  -1.1  751  269           
15 25.08.13 270 (З) 10 км    8/3 1000 м кучево-дожд., средняя, верхняя 
[Cb calv|Ac trans|Ci fib]
+29.7 +13.6 37 +36  1009.8  751  270    +31.6       
18 25.08.13 350 (С) 10 км    5/3 1000 м кучево-дожд., средняя, верхняя 
[Cb calv|Ac trans|Ci fib]
+25.5 +11 40 +28  1011.3  1.4  752  275           
21 25.08.13 320 (СЗ) 10 км    6/0 верхняя 
[Ci fib]
+22.8 +13.1 54 +28  1011.6  0.1  752  277           
00 26.08.13 330 (СЗ) 10 км    ясно 
+20.1 +10 52 +21  1012  0.2  752  281           
03 26.08.13 330 (СЗ) 10 км    1/0 верхняя 
[Ci fib]
+18.1 +10 59 +19  1013  0.9  753  283  +18         
06 26.08.13 330 (СЗ) 10 км    ясно 
+22.7 +10 45 +24  1013.6  0.8  754  279           
09 26.08.13 300 (СЗ) 10 км    ясно 
+25.9 +8.1 32 +26  1013.3  -0.1  754  276           
12 26.08.13 300 (СЗ) 10 км    ясно 
+27.9 +6.8 26 +28  1012.3  -0.9  753  274           
15 26.08.13 320 (СЗ) 10 км    ясно 
+27.5 +7 27 +28  1012.1  -0.2  753  274    +28.6       
18 26.08.13 300 (СЗ) 10 км    ясно 
+21.9 +14.3 62 +29  1013.4  1.1  754  278           
21 26.08.13 010 (С) 10 км    ясно 
+21.7 +8.7 43 +22  1013.3  -0.2  753  280           
00 27.08.13 060 (СВ) 10 км    ясно 
+17.4 +9.9 61 +19  1013.7  0.3  754  284           
03 27.08.13 070 (В) 10 км    3/0 средняя 
[Ac trans]
+15.5 +10.3 71 +17  1014.6  0.4  754  286  +15.2         
06 27.08.13 100 (В) 10 км    4/0 средняя, верхняя 
[Ac trans|Ci fib]
+22.7 +13 54 +28  1015.4  1.2  755  278           
09 27.08.13 020 (С) 10 км    8/0 средняя, верхняя 
[Ac trans|Ci fib]
+27.3 +9.6 33 +28  1014.8  -0.5  755  275           
12 27.08.13 010 (С) 10 км    9/0 средняя 
[Ac trans]
+27.7 +9.7 32 +28  1014.4  -0.4  754  274           
15 27.08.13 090 (В) 10 км    8/0 средняя 
[Ac trans]
+26.3 +10.7 38 +28  1014.1  -0.3  754  275    +29       
18 27.08.13 080 (В) 10 км    8/0 средняя 
[Ac trans]
+24.1 +10.5 42 +26  1015.4  1.2  755  278           
21 27.08.13 090 (В) 10 км    5/0 средняя 
[Ac trans]
+21.5 +10.6 50 +23  1015.9  0.4  755  280           
00 28.08.13 080 (В) 10 км    9/0 средняя 
[Ac trans]
+20.1 +10.5 54 +22  1016.4  0.4  756  282           
03 28.08.13 090 (В) 10 км    9/1 1000 м кучево-дожд., средняя 
[Cb calv|Ac trans]
+19 +12.1 64 +23  1017.2  0.7  756  283  +19.1         
06 28.08.13 080 (В) 10 км    9/3 1000 м кучево-дожд., средняя 
[Cb calv|Ac trans]
+19.6 +13.4 67 +26  1018.4  1.2  757  282  +18.8         
09 28.08.13 110 (В) 10 км    9/0 средняя 
[Ac trans]
+25.2 +14.1 50 +32  1018.3  0.1  757  277           
12 28.08.13 090 (В) 7-10{10}  10 км    8/0 средняя, верхняя 
[Ac trans|Ci fib]
+27.8 +12.1 38 +32  1017.3  -0.8  757  274           
15 28.08.13 090 (В) 6{11}  10 км    4/0 средняя, верхняя 
[Ac trans|Ci fib]
+27.5 +10.8 35 +30  1016.6  -0.6  756  275    +29.2       
18 28.08.13 090 (В) 5{11}  10 км    3/0 средняя 
[Ac trans]
+22.9 +9.6 43 +23  1017.6  0.7  757  280           
21 28.08.13 090 (В) 10 км    3/0 средняя 
[Ac trans]
+20.1 +8.5 47 +20  1017.7  757  283           
00 29.08.13 080 (В) 10 км    ясно 
+18.3 +6.1 45 +18  1017.9  0.1  757  285           
03 29.08.13 080 (В) 7-10{10}  10 км    8/0 средняя, верхняя 
[Ac trans|Ci fib]
+17 +3.7 41 +17  1017.6  -0.3  757  286  +16.9         
06 29.08.13 080 (В) 6{10}  10 км    5/0 средняя 
[Ac trans]
+21.5 +8.6 44 +22  1017.4  757  281  +16.7         
09 29.08.13 090 (В) 10-13{13}  10 км    6/0 верхняя 
[Ci fib]
+26.9 +7.4 29 +27  1015.5  -1.7  755  276           
12 29.08.13 100 (В) 11-14{14}  10 км    4/0 верхняя 
[Ci fib]
+28.8 +4.3 21 +29  1013.5  -1.8  754  274           
15 29.08.13 100 (В) 7-10{14}  10 км    5/0 верхняя 
[Ci fib]
+27.4 +5.2 24 +27  1012.6  -0.5  753  275    +29.1       
18 29.08.13 090 (В) 5{14}  10 км    3/0 верхняя 
[Ci fib]
+23.3 +6.5 34 +23  1013  0.2  753  279           
21 29.08.13 080 (В) 10 км    ясно 
+20.6 +7.2 42 +21  1012.3  -0.8  753  281           
00 30.08.13 090 (В) 10 км    3/0 верхняя 
[Ci fib]
+18.8 +10.2 57 +20  1012.1  -0.2  753  282           
03 30.08.13 080 (В) 10 км    4/0 средняя, верхняя 
[Ac trans|Ci fib]
+17.4 +13 75 +22  1011.4  -0.8  752  282  +17.2         
06 30.08.13 110 (В) 10 км    4/0 средняя, верхняя 
[Ac trans|Ci fib]
+22.2 +14.6 62 +30  1011  -0.1  752  277           
09 30.08.13 120 (ЮВ) 10 км    8/3 1000 м средняя, верхняя 
[Cu hum|Ac trans|Ci fib]
+26.4 +15.3 50 +36  1010.3  -0.5  751  273           
12 30.08.13 120 (ЮВ) 10 км    9/3 1000 м средняя, верхняя 
[Cu hum|Ac trans|Ci fib]
+29.5 +14.8 41 +38  1008.8  -1.3  750  270           
15 30.08.13 240 (ЮЗ) 10 км    9/1 1000 м кучево-дожд., средняя, верхняя 
[Cb calv|Ac trans|Ci fib]
+29.8 +14.8 40 +38  1008.2  -0.5  750  269    +30.2       
18 30.08.13 тихо ()   10 км    9/1 1000 м кучево-дожд., средняя, верхняя 
[Cb calv|Ac trans|Ci fib]
+25.5 +16.1 56 +36  1008.1  -0.2  750  273           
21 30.08.13 270 (З) 10 км    8/1 1000 м кучево-дожд., средняя 
[Cb calv|Ac trans]
+24 +18.7 72 +40  1007.9  -0.2  750  273           
00 31.08.13 260 (З) 10 км  гроза без осадков{ливн. осадки}  9/5 1000 м кучево-дожд., средняя 
[Cb cap|Ac trans]
+22.4 +21.1 92 +44  1007.5  -0.5  749  274           
03 31.08.13 240 (ЮЗ) 10 км  слаб. ливневой дождь{гроза}  10/4 1000 м кучево-дожд., средняя 
[Cb calv|Ac und]
+22.3 +19.7 85 +40  1007.3  -0.2  749  274  +22    0.0     
06 31.08.13 260 (З) 10 км  ливневой дождь, в посл. час гроза  9/4 1000 м кучево-дожд., средняя 
[Cb cap|Ac trans]
+21.9 +19.1 84 +39  1008  0.7  750  275  +21.3         
09 31.08.13 230 (ЮЗ) 3000 м  гроза, ливневой дождь  10/5 300 м кучево-дожд., средняя 
[Cb cap|Ac und]
+22 +19.8 87 +40  1008.7  0.7  750  275           
12 31.08.13 240 (ЮЗ) 6{11}  10 км  {гроза, ливн. осадки}  5/4 600 м кучево-дожд., средняя 
[Cb calv|Ac trans]
+25.2 +18 64 +40  1008  -0.6  750  272           
15 31.08.13 250 (З) 6-10{11}  10 км    4/0 средняя, верхняя 
[Ac trans|Ci fib]
+22.3 +14.7 62 +30  1008.7  0.6  750  276    +25.6  18     
18 31.08.13 230 (ЮЗ) 5{11}  10 км    5/3 600 м средняя 
[Sc|Ac trans]
+18.8 +13.5 71 +25  1009.9  1.1  751  280           
21 31.08.13 250 (З) 10 км    4/4 600 м 
[Sc]
+17.5 +13.4 77 +24  1009.7  -0.1  751  282           
00 01.09.13 220 (ЮЗ) 10 км    5/1 600 м средняя 
[Sc|Ac trans]
+16 +13.6 86 +22  1010  0.1  751  283           
03 01.09.13 270 (З) 10 км    9/3 600 м средняя, верхняя 
[Sc|Ac trans|Ci fib]
+16.3 +13.7 85 +23  1010.4  0.3  751  283  +15.1         
06 01.09.13 270 (З) 10 км    9/9 570 м 
[Sc]
+17.5 +14.1 80 +25  1011.2  0.6  752  282           
09 01.09.13 260 (З) 10 км    8/4 1080 м средняя, верхняя 
[Cu med, cong|Ac trans|Ci fib]
+21.8 +13.4 59 +28  1010.7  -0.2  752  278           
Время (UTC), дата Ветер
(°,м/с) 
Видим.   Явления Облачность Т
(°С)
Тd
(°С)
f(%) Тe
(°С)
Pmin
(гПа)
dP
(гПа)
Po
(мм)
O2
(г/м3)
Тmin Tmax R s Состояние
почвы